Time,TemperatureF,DewpointF,PressureIn,WindDirection,WindDirectionDegrees,WindSpeedMPH,WindSpeedGustMPH,Humidity,HourlyPrecipIn,Conditions,Clouds,dailyrainin,SolarRadiationWatts/m^2,SoftwareType,DateUTC
2013-07-11 00:01:00,52.0,45.0,-100.00,West,272,1.0,4.0,76,0.00,,,0.00,0.000000,,2013-07-11 07:01:00,
2013-07-11 00:32:00,50.0,44.0,-100.00,WSW,250,1.0,6.0,79,0.00,,,0.00,0.000000,,2013-07-11 07:32:00,
2013-07-11 00:45:00,50.0,44.0,-100.00,WSW,250,1.0,6.0,79,0.00,,,0.00,0.000000,,2013-07-11 07:45:00,
2013-07-11 00:53:00,50.0,44.0,-100.00,WSW,250,1.0,6.0,79,0.00,,,0.00,0.000000,,2013-07-11 07:53:00,
2013-07-11 01:02:00,50.0,44.0,-100.00,WSW,250,1.0,6.0,79,0.00,,,0.00,0.000000,,2013-07-11 08:02:00,
2013-07-11 01:34:00,48.0,44.0,-100.00,ESE,123,1.0,6.0,85,0.00,,,0.00,0.000000,,2013-07-11 08:34:00,
2013-07-11 01:43:00,48.0,44.0,-100.00,ESE,123,1.0,6.0,85,0.00,,,0.00,0.000000,,2013-07-11 08:43:00,
2013-07-11 06:35:00,42.0,41.0,-100.00,WSW,244,1.0,6.0,97,-99.99,,,0.00,3.000000,,2013-07-11 13:35:00,
2013-07-11 06:46:00,42.0,41.0,-100.00,WSW,244,1.0,6.0,97,-99.99,,,0.00,3.000000,,2013-07-11 13:46:00,
2013-07-11 06:54:00,42.0,41.0,-100.00,WSW,244,1.0,6.0,97,-99.99,,,0.00,3.000000,,2013-07-11 13:54:00,
2013-07-11 07:36:00,43.0,41.0,-100.00,SSW,213,1.0,6.0,91,-99.99,,,0.00,31.000000,,2013-07-11 14:36:00,
2013-07-11 07:46:00,43.0,41.0,-100.00,SSW,213,1.0,6.0,91,-99.99,,,0.00,31.000000,,2013-07-11 14:46:00,
2013-07-11 07:54:00,43.0,41.0,-100.00,SSW,213,1.0,6.0,91,-99.99,,,0.00,31.000000,,2013-07-11 14:54:00,
2013-07-11 08:02:00,43.0,41.0,-100.00,SSW,213,1.0,6.0,91,-99.99,,,0.00,31.000000,,2013-07-11 15:02:00,
2013-07-11 08:38:00,46.0,39.0,-100.00,North,10,1.0,4.0,76,0.00,,,0.00,144.000000,,2013-07-11 15:38:00,
2013-07-11 08:47:00,46.0,39.0,-100.00,North,10,1.0,4.0,76,0.00,,,0.00,144.000000,,2013-07-11 15:47:00,
2013-07-11 08:56:00,46.0,39.0,-100.00,North,10,1.0,4.0,76,0.00,,,0.00,144.000000,,2013-07-11 15:56:00,
2013-07-11 09:03:00,46.0,39.0,-100.00,North,10,1.0,4.0,76,0.00,,,0.00,144.000000,,2013-07-11 16:03:00,
2013-07-11 09:36:00,53.0,42.0,-100.00,East,90,2.0,6.0,66,0.00,,,0.00,380.000000,,2013-07-11 16:36:00,
2013-07-11 09:49:00,53.0,42.0,-100.00,East,90,2.0,6.0,66,0.00,,,0.00,380.000000,,2013-07-11 16:49:00,
2013-07-11 09:56:00,53.0,42.0,-100.00,East,90,2.0,6.0,66,0.00,,,0.00,380.000000,,2013-07-11 16:56:00,
2013-07-11 10:02:00,53.0,42.0,-100.00,East,90,2.0,6.0,66,0.00,,,0.00,380.000000,,2013-07-11 17:02:00,
2013-07-11 10:39:00,61.0,42.0,-100.00,ENE,61,2.0,8.0,50,0.00,,,0.00,887.000000,,2013-07-11 17:39:00,
2013-07-11 10:48:00,61.0,42.0,-100.00,ENE,61,2.0,8.0,50,0.00,,,0.00,887.000000,,2013-07-11 17:48:00,
2013-07-11 10:54:00,61.0,42.0,-100.00,ENE,61,2.0,8.0,50,0.00,,,0.00,887.000000,,2013-07-11 17:54:00,
2013-07-11 11:03:00,61.0,42.0,-100.00,ENE,61,2.0,8.0,50,0.00,,,0.00,887.000000,,2013-07-11 18:03:00,
2013-07-11 11:48:00,64.0,42.0,-100.00,ESE,112,3.0,12.0,45,0.00,,,0.00,1073.000000,,2013-07-11 18:48:00,
2013-07-11 11:55:00,64.0,42.0,-100.00,ESE,112,3.0,12.0,45,0.00,,,0.00,1073.000000,,2013-07-11 18:55:00,
2013-07-11 12:02:00,64.0,42.0,-100.00,ESE,112,3.0,12.0,45,0.00,,,0.00,1073.000000,,2013-07-11 19:02:00,
2013-07-11 12:39:00,69.0,40.0,-100.00,North,6,4.0,14.0,35,0.00,,,0.00,1207.000000,,2013-07-11 19:39:00,
2013-07-11 12:46:00,69.0,40.0,-100.00,North,6,4.0,14.0,35,0.00,,,0.00,1207.000000,,2013-07-11 19:46:00,
2013-07-11 12:57:00,69.0,40.0,-100.00,North,6,4.0,14.0,35,0.00,,,0.00,1207.000000,,2013-07-11 19:57:00,
2013-07-11 13:03:00,69.0,40.0,-100.00,North,6,4.0,14.0,35,0.00,,,0.00,1207.000000,,2013-07-11 20:03:00,
2013-07-11 13:48:00,71.0,36.0,-100.00,East,91,3.0,16.0,28,0.00,,,0.00,1282.000000,,2013-07-11 20:48:00,
2013-07-11 13:54:00,71.0,36.0,-100.00,East,91,3.0,16.0,28,0.00,,,0.00,1282.000000,,2013-07-11 20:54:00,
2013-07-11 14:02:00,71.0,36.0,-100.00,East,91,3.0,16.0,28,0.00,,,0.00,1282.000000,,2013-07-11 21:02:00,
2013-07-11 14:45:00,73.0,34.0,-100.00,South,179,4.0,15.0,24,0.00,,,0.00,1285.000000,,2013-07-11 21:45:00,
2013-07-11 14:57:00,73.0,34.0,-100.00,South,179,4.0,15.0,24,0.00,,,0.00,1285.000000,,2013-07-11 21:57:00,
2013-07-11 15:36:00,75.0,27.0,-100.00,SSE,167,4.0,15.0,17,0.00,,,-99.99,1229.000000,,2013-07-11 22:36:00,
2013-07-11 15:49:00,75.0,27.0,-100.00,SSE,167,4.0,15.0,17,0.00,,,-99.99,1229.000000,,2013-07-11 22:49:00,
2013-07-11 16:01:00,75.0,27.0,-100.00,SSE,167,4.0,15.0,17,0.00,,,-99.99,1229.000000,,2013-07-11 23:01:00,
2013-07-11 18:38:00,74.0,39.0,-100.00,SW,233,3.0,10.0,28,-99.99,,,0.00,697.000000,,2013-07-12 01:38:00,
2013-07-11 18:47:00,74.0,39.0,-100.00,SW,233,3.0,10.0,28,-99.99,,,0.00,697.000000,,2013-07-12 01:47:00,
2013-07-11 19:36:00,67.0,43.0,-100.00,South,188,2.0,10.0,42,-99.99,,,0.00,271.000000,,2013-07-12 02:36:00,
2013-07-11 19:45:00,67.0,43.0,-100.00,South,188,2.0,10.0,42,-99.99,,,0.00,271.000000,,2013-07-12 02:45:00,
2013-07-11 19:55:00,67.0,43.0,-100.00,South,188,2.0,10.0,42,-99.99,,,0.00,271.000000,,2013-07-12 02:55:00,
2013-07-11 20:02:00,67.0,43.0,-100.00,South,188,2.0,10.0,42,-99.99,,,0.00,271.000000,,2013-07-12 03:02:00,
2013-07-11 20:37:00,59.0,44.0,-100.00,West,261,2.0,8.0,57,0.00,,,0.00,85.000000,,2013-07-12 03:37:00,
2013-07-11 20:46:00,59.0,44.0,-100.00,West,261,2.0,8.0,57,0.00,,,0.00,85.000000,,2013-07-12 03:46:00,
2013-07-11 21:01:00,59.0,44.0,-100.00,West,261,2.0,8.0,57,0.00,,,0.00,85.000000,,2013-07-12 04:01:00,
2013-07-11 21:53:00,52.0,44.0,-100.00,SW,227,2.0,8.0,73,0.00,,,0.00,7.000000,,2013-07-12 04:53:00,
2013-07-11 22:02:00,52.0,44.0,-100.00,SW,227,2.0,8.0,73,0.00,,,0.00,7.000000,,2013-07-12 05:02:00,
2013-07-11 22:32:00,51.0,45.0,-100.00,West,277,1.0,6.0,80,0.00,,,0.00,0.000000,,2013-07-12 05:32:00,
2013-07-11 22:43:00,51.0,45.0,-100.00,West,277,1.0,6.0,80,0.00,,,0.00,0.000000,,2013-07-12 05:43:00,
2013-07-11 22:53:00,51.0,45.0,-100.00,West,277,1.0,6.0,80,0.00,,,0.00,0.000000,,2013-07-12 05:53:00,
2013-07-11 23:01:00,51.0,45.0,-100.00,West,277,1.0,6.0,80,0.00,,,0.00,0.000000,,2013-07-12 06:01:00,
2013-07-11 23:33:00,47.0,43.0,-100.00,ENE,72,1.0,6.0,85,0.00,,,0.00,0.000000,,2013-07-12 06:33:00,
2013-07-11 23:42:00,47.0,43.0,-100.00,ENE,72,1.0,6.0,85,0.00,,,0.00,0.000000,,2013-07-12 06:42:00,